Weather History for KFIT - March, 2013

Change the Weather History Date:

Tuesday, March 26, 2013

  Actual Average (KORH) Record (KORH)
Temperature  
Mean Temperature 43 °F 38 °F  
Max Temperature 50 °F 46 °F 71 °F (1949)
Min Temperature 35 °F 30 °F 2 °F (1960)
Degree Days  
Heating Degree Days 22 27  
Month to date heating degree days 809  
Since 1 July heating degree days 5646  
Cooling Degree Days 0 0  
Month to date cooling degree days 0  
Year to date cooling degree days 0  
Moisture  
Dew Point 23 °F    
Average Humidity 50    
Maximum Humidity 73    
Minimum Humidity 28    
Precipitation  
Precipitation 0.00 in 0.14 in 1.75 in (1988)
Month to date precipitation 3.49  
Year to date precipitation 10.21  
Sea Level Pressure  
Sea Level Pressure 29.70 in    
Wind  
Wind Speed 7 mph (NW)    
Max Wind Speed 14 mph    
Max Gust Speed 22 mph    
Visibility 10 miles    
Events      
T = Trace of Precipitation, MM = Missing Value Source: NWS Daily Summary

Daily Weather History Graph

Daily Weather History Graph

Search for Another Location

Airport or City:

Trip Planner

Search our weather history database for the weather conditions in past years. The results will help you decide how hot, cold, wet, or windy it might be!

Date:

Astronomy

Mar. 26, 2013 Rise Set
Actual Time 6:39 AM EDT 7:06 PM EDT
Civil Twilight 6:11 AM EDT 7:34 PM EDT
Nautical Twilight 5:37 AM EDT 8:08 PM EDT
Astronomical Twilight 5:03 AM EDT 8:42 PM EDT
Moon 6:40 PM EDT 5:54 AM EDT
Length of Visible Light 13h 23m
Length of Day
12h 26m
Waxing Gibbous, 99% of the Moon is Illuminated
Mar 26
Waxing Gibbous
Mar 27
Full
Apr 3
Last Quarter
Apr 10
New
Apr 18
First Quarter

Hourly Weather History & Observations

Time (EDT) Temp. Windchill Dew Point Humidity Pressure Visibility Wind Dir Wind Speed Gust Speed Precip Events Conditions
12:52 AM 37.0 °F 31.0 °F 26.1 °F 65% 29.57 in 10.0 mi NNW 8.1 mph - 0.00 in   Overcast
1:52 AM 37.0 °F 31.0 °F 25.0 °F 62% 29.57 in 10.0 mi NNW 8.1 mph - N/A   Overcast
5:52 AM 36.0 °F 31.1 °F 26.1 °F 67% 29.62 in 10.0 mi NNW 5.8 mph - N/A   Overcast
6:52 AM 36.0 °F 32.1 °F 26.1 °F 67% 29.64 in 10.0 mi NW 4.6 mph - N/A   Overcast
7:52 AM 37.0 °F 32.4 °F 26.1 °F 65% 29.67 in 10.0 mi NNW 5.8 mph - N/A   Overcast
8:52 AM 37.0 °F 34.5 °F 26.1 °F 65% 29.69 in 10.0 mi NNW 3.5 mph - N/A   Overcast
9:52 AM 37.0 °F 33.3 °F 28.9 °F 73% 29.70 in 10.0 mi West 4.6 mph - 0.00 in   Overcast
10:52 AM 39.9 °F 35.8 °F 27.0 °F 60% 29.70 in 10.0 mi West 5.8 mph - N/A   Scattered Clouds
12:52 PM 44.1 °F 39.5 °F 24.1 °F 45% 29.70 in 10.0 mi NW 8.1 mph - N/A   Overcast
1:52 PM 46.9 °F - 23.0 °F 39% 29.70 in 10.0 mi NW 8.1 mph 17.3 mph N/A   Mostly Cloudy
2:52 PM 50.0 °F - 21.9 °F 33% 29.68 in 10.0 mi NW 13.8 mph 21.9 mph N/A   Mostly Cloudy
3:52 PM 46.9 °F - 19.9 °F 34% 29.69 in 10.0 mi NNW 12.7 mph - N/A   Mostly Cloudy
4:52 PM 48.9 °F - 17.1 °F 28% 29.68 in 10.0 mi NW 10.4 mph - N/A   Partly Cloudy
5:52 PM 46.9 °F - 19.0 °F 33% 29.71 in 10.0 mi WNW 10.4 mph - N/A   Mostly Cloudy
6:52 PM 45.0 °F 39.3 °F 19.0 °F 36% 29.74 in 10.0 mi WNW 11.5 mph 19.6 mph N/A   Mostly Cloudy
7:52 PM 41.0 °F 35.8 °F 21.0 °F 45% 29.77 in 10.0 mi WNW 8.1 mph - N/A   Clear
8:52 PM 39.9 °F 35.1 °F 19.9 °F 45% 29.78 in 10.0 mi NW 6.9 mph - N/A   Clear
9:52 PM 37.9 °F 34.4 °F 19.9 °F 48% 29.80 in 10.0 mi NW 4.6 mph - N/A   Clear
10:52 PM 37.0 °F 32.4 °F 18.0 °F 46% 29.80 in 10.0 mi WNW 5.8 mph - N/A   Clear
11:52 PM 35.1 °F 32.2 °F 19.0 °F 52% 29.81 in 10.0 mi NW 3.5 mph - N/A   Clear